RH
32 32 32 33 45 58 60 60 68 73 72 78 83 88 96 97 100 99 95 96 98 97 97 98 97 93 97 97 96 96 95 95 94 94 90 86 84 82 82 82 81 76 78 77 72 69 66 75 64 43 37 26
27 28 30 30 33 44 51 51 61 69 70 85 91 90 96 96 98 100 98 97 98 96 93 98 100 96 99 99 97 99 99 97 94 95 92 88 86 82 82 81 75 62 61 66 70 71 70 77 63 44 30 14
25 25 24 26 27 33 46 56 71 84 85 95 100 95 99 99 98 100 100 100 99 95 93 98 101 99 100 99 98 98 100 99 96 96 92 89 90 89 85 81 76 65 56 57 63 65 63 58 45 41 31 10
20 21 20 22 23 25 41 63 83 96 97 97 99 99 99 99 98 99 100 100 100 96 94 97 98 99 100 99 100 98 98 98 95 93 89 87 89 91 91 88 81 71 62 57 56 53 45 32 24 25 18 9
12 15 15 17 24 25 36 61 78 86 92 89 91 95 96 97 95 97 100 99 99 97 95 97 98 99 99 98 98 98 96 94 91 88 86 86 87 88 93 94 90 83 76 64 55 49 37 24 20 19 11 9
9 11 12 18 27 30 37 56 71 78 86 87 87 89 90 97 95 92 97 97 98 98 98 99 99 99 98 96 95 94 93 91 88 86 85 87 88 87 89 92 93 94 91 79 64 48 35 24 21 18 13 12
11 12 13 19 27 45 61 62 70 82 88 89 88 91 91 95 97 94 95 97 99 99 99 100 98 97 97 96 93 91 88 86 85 83 81 82 84 84 85 87 89 93 95 93 85 65 41 28 23 18 16 16
12 12 14 18 22 50 75 71 79 88 87 86 82 87 92 94 98 99 98 98 100 99 97 97 97 97 97 97 94 89 85 81 79 79 76 73 73 74 77 79 78 80 85 92 95 87 68 50 43 34 24 19
12 12 14 18 19 35 61 79 96 92 78 79 81 87 92 92 95 95 97 100 99 97 95 95 97 98 98 97 94 88 85 82 78 77 75 70 67 65 66 68 69 69 70 77 83 87 86 78 75 68 51 35
11 14 13 16 18 24 43 63 81 93 93 85 78 81 81 84 91 93 97 98 91 91 95 98 99 99 98 97 95 91 87 85 82 78 76 73 69 64 61 58 59 60 58 59 63 69 76 78 80 81 74 62
9 13 15 16 18 21 34 44 55 79 96 90 77 74 75 79 85 92 98 95 88 91 98 99 100 98 97 100 98 94 90 89 88 82 76 75 72 69 66 58 50 49 48 47 48 50 55 59 63 67 69 69
7 11 14 16 20 23 31 43 53 61 69 79 90 89 84 85 89 94 99 98 92 93 98 99 101 97 93 99 100 96 92 90 91 89 84 80 76 72 72 69 61 53 48 47 47 46 48 51 51 51 52 55
6 8 13 16 19 24 33 45 54 55 55 63 83 93 84 82 93 99 98 100 96 93 97 99 100 97 93 97 100 97 91 89 90 91 93 92 87 81 75 73 73 69 64 60 59 60 62 65 63 62 60 57
6 6 10 16 18 22 36 53 57 56 59 57 62 77 83 86 94 100 99 96 97 98 99 100 98 96 96 98 100 97 91 90 93 95 97 99 98 95 90 82 76 74 74 73 71 71 72 74 78 83 87 83
6 6 7 13 19 23 31 51 65 62 64 68 60 59 77 94 92 89 95 92 94 100 99 98 97 97 99 99 100 98 96 96 96 96 96 96 96 97 97 96 91 85 81 78 77 77 76 76 79 84 91 95
7 7 8 9 15 24 29 44 74 77 67 74 73 61 63 83 91 83 88 95 97 98 94 95 98 99 101 99 100 100 99 100 98 94 92 92 92 91 92 94 96 96 94 91 87 85 82 80 79 79 81 84
9 8 9 10 11 21 28 39 78 95 81 79 85 82 67 69 92 98 97 97 96 97 96 97 99 100 101 98 98 100 100 100 99 93 89 89 90 90 91 90 91 93 95 97 97 97 95 91 89 86 82 79
11 12 11 12 10 18 26 34 71 102 100 94 95 97 85 69 75 89 98 99 96 100 101 99 100 100 100 98 95 98 100 100 100 96 91 88 88 89 92 93 92 91 91 92 93 94 96 96 96 95 93 89
13 14 13 14 12 15 25 31 54 88 101 101 99 98 93 79 66 66 85 101 100 98 100 99 100 99 98 98 97 98 99 100 100 99 97 93 88 87 89 91 92 92 92 91 89 89 89 90 91 92 94 95
15 16 16 19 19 14 21 29 41 70 93 99 101 98 91 86 78 67 70 92 101 93 96 101 100 98 99 99 99 97 96 96 99 100 100 98 92 87 86 86 88 89 89 89 89 90 89 88 88 88 89 90
17 18 20 24 33 31 26 29 34 50 73 92 102 102 97 90 88 83 70 80 99 98 97 100 100 100 99 100 100 99 98 97 99 100 99 100 99 94 87 83 83 85 85 84 86 89 92 91 89 87 86 85
21 20 21 24 38 49 47 46 45 46 56 78 95 99 102 98 94 94 83 77 88 96 100 100 99 100 99 100 100 99 100 100 100 100 100 100 100 100 96 87 81 81 82 82 84 88 90 90 89 87 85 83
29 24 23 25 33 51 68 70 60 54 54 69 91 96 97 101 100 96 91 84 81 85 96 101 99 99 100 100 100 100 100 100 100 99 100 100 99 100 100 98 91 85 84 83 83 81 78 76 79 81 81 80
37 33 28 27 33 51 80 91 79 71 68 72 89 99 98 99 99 98 97 95 88 82 85 94 100 100 99 99 99 100 99 100 100 100 100 99 100 100 99 101 99 96 90 83 77 72 68 66 67 70 71 72
40 39 35 31 30 40 68 95 100 95 88 83 85 91 99 100 94 96 101 99 96 90 81 81 92 98 100 101 100 100 100 100 99 99 100 100 99 100 100 100 100 101 97 88 79 73 72 72 70 66 61 61
41 41 40 39 36 35 49 74 93 100 100 98 92 85 92 101 97 97 100 98 98 99 92 85 87 90 91 93 96 100 100 100 100 99 100 100 100 99 99 100 99 100 100 96 90 86 86 87 87 81 72 67
44 44 43 43 43 42 42 50 62 75 85 92 96 95 94 98 100 100 100 98 98 100 100 97 95 94 92 92 96 100 100 100 100 100 100 100 100 100 99 100 100 99 100 99 98 98 97 97 98 96 91 86
48 48 48 46 45 45 44 45 46 51 56 60 69 84 94 95 92 93 97 100 100 99 100 100 99 99 100 99 100 100 99 99 99 100 101 100 99 100 100 99 99 100 100 100 100 100 100 100 100 98 97 97
57 55 55 54 52 49 47 46 46 45 45 43 43 52 67 79 82 80 81 88 95 98 99 99 99 99 99 100 100 100 99 99 100 100 100 100 100 99 100 100 100 100 99 99 100 100 100 100 99 97 99 100
50 51 53 55 55 55 52 49 48 46 45 44 42 41 44 53 63 64 61 63 72 82 90 95 97 98 100 100 100 99 99 99 100 100 99 100 100 99 98 98 98 98 97 97 99 100 100 100 98 97 99 100
32 33 35 39 42 45 48 49 50 50 49 47 46 45 43 43 46 48 49 46 48 55 66 78 86 90 92 97 100 98 98 99 99 99 100 100 100 100 99 96 93 94 95 95 94 97 99 100 100 99 99 100
Wind_Speed
26 27 27 25 23 25 28 28 27 29 28 27 29 30 32 37 38 36 34 31 29 23 18 16 17 14 15 20 22 20 19 16 13 14 17 19 20 20 20 21 24 25 26 27 27 26 25 26 24 22 23 24
26 27 28 27 24 24 27 28 27 29 29 31 38 37 35 41 40 36 33 30 27 23 19 20 20 15 15 18 21 24 25 22 19 19 20 21 21 20 19 21 23 24 25 26 27 27 27 27 25 23 24 26
27 27 28 29 28 25 24 22 19 20 27 30 37 36 33 37 36 32 28 24 23 23 21 19 18 18 18 20 21 24 27 28 28 25 21 19 20 21 22 23 24 25 26 26 27 28 27 26 24 24 26 27
27 27 27 28 29 27 23 19 12 12 21 21 24 27 27 29 28 25 22 21 20 20 21 19 19 20 20 22 23 24 24 25 25 22 18 15 16 20 22 24 25 26 26 26 26 26 25 22 22 23 27 28
27 26 25 26 28 28 23 19 15 15 18 17 19 21 22 25 23 17 19 21 22 21 20 21 21 21 20 21 21 21 20 19 19 18 17 14 15 17 20 23 25 27 27 26 24 23 22 21 21 23 25 26
25 24 22 23 25 26 24 21 18 19 22 22 22 23 24 24 22 24 26 23 23 23 23 24 22 21 20 18 18 18 19 18 18 18 17 15 16 17 19 22 24 26 27 27 24 23 22 21 21 23 25 26
24 23 21 20 22 23 23 21 20 21 21 22 23 25 26 24 25 28 27 25 25 24 25 25 23 20 18 17 18 19 20 19 19 18 18 17 17 17 18 20 21 23 25 27 27 26 24 23 22 22 24 25
25 24 21 20 19 20 23 22 23 24 22 23 26 27 27 26 28 26 26 29 26 22 23 24 24 21 19 19 19 20 20 20 19 18 17 16 16 16 15 16 17 18 20 23 26 28 28 28 28 27 25 23
25 25 23 21 19 19 21 21 23 28 27 27 28 29 29 29 29 27 28 27 23 22 22 23 26 24 20 18 17 18 18 18 17 14 12 12 13 14 14 14 15 15 15 17 20 23 26 28 30 32 31 27
25 25 23 22 20 19 21 22 24 27 27 28 30 30 31 30 30 30 28 24 23 24 22 23 24 22 18 17 17 17 18 17 15 12 11 12 12 12 12 13 14 15 15 16 17 19 21 22 24 27 30 31
25 25 24 22 21 20 22 24 26 27 26 29 31 31 31 31 33 32 27 23 24 24 23 22 20 18 18 20 21 20 18 17 16 16 17 17 16 14 13 13 14 15 15 16 18 18 18 18 20 22 23 25
26 25 25 24 22 21 21 24 27 29 30 29 28 31 31 32 37 36 27 24 24 22 23 23 19 20 22 23 22 22 19 17 18 19 21 22 21 20 18 16 16 17 17 17 17 18 17 17 18 20 21 21
28 25 25 26 24 22 22 23 26 29 31 30 29 31 31 30 36 36 28 25 25 23 24 24 22 23 25 24 22 24 20 18 18 19 21 23 24 25 24 22 20 20 20 20 20 19 19 18 17 17 19 20
32 27 25 26 25 23 21 23 26 28 30 32 32 31 29 27 33 35 30 28 28 25 24 24 25 26 27 25 21 23 21 19 19 18 18 19 21 23 25 26 26 25 24 23 23 23 22 21 20 19 18 18
34 31 27 26 26 24 23 23 26 29 29 30 31 31 27 25 30 32 31 33 31 29 27 26 27 28 28 25 21 23 21 20 20 19 18 16 17 18 20 23 26 29 29 28 27 27 26 25 24 23 22 22
34 33 29 27 27 25 24 24 25 29 30 29 29 30 28 26 30 31 32 34 32 32 30 29 30 28 27 25 23 23 21 22 22 21 20 18 17 18 18 20 22 24 27 29 30 30 30 30 30 29 28 27
32 32 31 27 27 27 26 24 24 28 31 32 30 29 28 28 32 32 32 33 33 34 32 31 30 27 25 25 24 23 22 23 24 24 23 22 20 20 20 20 20 21 22 24 25 27 28 30 32 33 34 34
31 31 30 28 27 27 27 25 25 25 27 31 31 29 28 28 32 32 32 33 34 33 33 33 31 27 24 23 23 24 22 22 24 26 25 25 24 23 23 22 22 22 22 22 21 22 23 24 26 29 32 34
31 30 30 29 27 27 27 27 29 29 27 28 30 30 29 29 31 32 32 34 35 33 35 37 34 30 26 23 24 24 23 22 23 26 27 27 27 26 26 26 26 26 26 25 24 24 23 23 23 24 25 26
32 32 31 29 27 26 28 29 31 34 32 28 27 29 31 31 30 32 33 34 34 34 40 40 33 32 30 26 25 24 24 25 24 25 26 28 30 30 30 30 30 30 30 30 30 29 29 28 28 27 26 25
31 31 31 30 28 25 26 30 32 36 37 33 27 27 31 34 34 32 32 34 36 37 43 43 35 34 36 30 27 26 27 28 28 28 27 28 30 32 34 34 33 33 33 34 34 34 34 33 33 32 31 30
29 30 31 30 28 26 25 26 31 35 38 37 33 29 28 32 35 33 31 33 37 40 44 46 40 39 39 34 31 30 31 32 33 32 30 30 30 31 33 36 37 37 37 38 38 38 38 38 38 37 36 35
26 28 30 30 29 28 26 26 29 32 36 37 37 36 32 30 31 32 32 33 36 39 42 44 44 44 44 39 36 36 35 36 35 33 32 33 32 32 33 36 39 41 41 41 41 41 41 40 40 39 39 38
24 25 27 29 30 28 25 24 26 28 32 35 37 38 36 34 32 31 31 33 37 40 41 42 43 46 47 44 41 42 40 37 35 34 34 35 35 35 35 36 38 41 42 42 41 41 40 40 39 39 39 39
26 25 25 27 29 28 26 26 25 25 27 32 36 37 36 35 35 33 31 33 37 40 41 42 44 45 47 46 46 47 44 41 39 38 37 37 39 39 38 38 38 38 40 41 41 40 40 39 38 38 38 39
29 27 25 24 25 26 26 27 29 29 29 30 33 37 37 35 34 33 31 30 32 37 40 42 44 45 46 47 48 49 47 45 46 45 41 39 41 41 37 37 37 36 37 40 42 41 41 41 40 39 40 41
32 30 28 26 25 25 24 24 25 28 31 31 31 34 38 38 36 33 32 29 26 29 35 39 42 45 47 48 49 49 48 47 49 50 44 40 42 41 35 33 34 34 35 38 41 42 43 43 42 42 42 43
35 34 33 31 29 27 27 26 24 24 26 28 30 31 34 38 40 39 37 34 30 27 27 30 32 36 43 47 49 50 49 49 50 50 47 43 43 41 39 37 35 34 33 35 38 39 40 41 42 43 43 43
36 37 36 35 33 31 31 30 28 26 24 25 26 28 31 34 38 40 40 39 38 35 32 29 27 27 32 38 43 46 48 50 49 46 44 43 42 41 40 40 39 37 35 35 37 38 38 37 38 40 40 41
38 39 39 39 38 37 35 34 33 31 29 27 27 27 29 31 33 35 37 37 37 37 37 37 34 31 29 30 32 34 37 42 44 45 44 42 41 42 43 43 43 41 38 37 37 38 40 39 38 37 36 36
44 43 43 43 43 42 41 40 38 37 36 35 34 33 32 32 33 33 34 34 34 34 35 37 37 37 35 33 32 31 30 31 34 38 43 45 45 46 47 48 49 46 43 41 39 39 40 41 40 39 37 37
Wind_Direction
297 296 295 296 300 298 294 288 282 277 273 270 259 246 241 239 235 230 227 227 231 232 232 258 288 286 260 251 249 247 247 243 242 252 251 248 248 244 243 245 244 243 244 244 242 242 243 243 242 239 241 237
295 296 296 297 299 300 299 295 289 278 267 259 247 237 237 237 227 219 221 223 223 226 244 280 295 290 279 272 262 257 254 248 251 269 269 256 251 247 245 245 243 241 240 242 242 242 240 243 244 236 235 234
291 293 297 298 299 300 302 302 302 269 243 229 223 222 229 233 223 215 217 216 219 230 251 274 279 276 275 275 273 266 262 258 260 272 273 261 254 247 244 243 242 243 241 240 240 241 241 241 240 232 229 231
287 289 294 298 299 302 306 309 311 245 223 212 214 217 217 220 213 211 220 226 236 247 255 264 268 268 268 269 270 266 263 263 265 268 265 258 253 248 245 241 239 241 243 243 240 238 239 239 237 230 225 226
286 286 289 295 298 300 303 304 299 273 263 265 259 250 242 232 219 231 257 255 256 263 266 268 266 267 269 267 263 260 258 260 264 265 263 255 244 243 245 243 240 239 240 243 243 238 235 233 233 229 224 224
287 284 287 292 295 297 298 297 296 287 279 281 280 281 279 263 256 275 284 277 269 270 273 271 264 264 267 262 255 254 254 255 258 258 260 255 247 242 240 245 246 243 240 239 240 236 231 227 225 224 223 221
289 286 287 289 291 293 291 290 290 284 275 279 281 283 283 276 279 286 289 289 280 277 279 272 263 259 255 250 250 250 249 250 250 249 248 244 244 241 237 242 246 247 245 241 238 233 228 225 220 219 222 222
290 288 287 285 285 283 281 285 288 283 278 281 281 280 277 276 284 289 291 290 282 284 289 280 269 259 247 243 244 247 250 250 246 245 244 241 241 241 240 241 243 247 248 246 241 236 232 228 226 222 219 223
291 288 286 282 279 274 271 274 279 279 278 278 280 281 277 278 285 287 288 285 282 293 300 290 274 259 250 245 243 247 250 251 248 245 244 244 245 248 249 247 247 246 245 246 246 244 241 238 236 231 223 221
289 288 285 280 275 269 263 261 262 267 275 275 274 278 277 279 281 281 286 287 294 300 300 294 276 260 265 265 253 244 241 243 242 236 231 231 235 241 247 248 247 244 239 240 244 246 247 245 244 241 235 229
286 286 285 281 274 268 262 262 258 253 263 271 272 273 274 277 276 276 282 288 298 300 292 289 279 273 291 289 266 243 232 231 231 229 228 228 227 227 229 231 233 235 232 231 234 236 237 239 239 239 239 237
282 281 282 280 275 269 264 263 261 256 257 263 269 270 270 277 277 273 274 284 294 296 289 283 279 286 299 298 269 242 229 224 225 227 228 230 229 227 225 223 224 226 225 222 223 225 224 225 226 227 227 229
282 276 275 277 274 270 266 263 262 260 259 258 260 266 271 277 275 271 271 281 286 290 291 282 279 286 294 296 267 238 230 227 227 228 229 232 231 231 228 227 226 225 225 223 221 221 221 220 219 220 221 221
284 277 271 271 272 269 265 265 265 261 259 258 258 264 272 273 268 268 273 280 280 282 286 279 278 281 285 288 261 234 231 232 232 229 226 228 228 229 229 229 231 230 229 228 227 226 224 223 221 222 224 224
285 281 273 267 268 266 261 260 266 265 261 260 259 260 264 266 265 267 271 274 274 275 278 275 276 273 273 276 253 233 232 232 233 227 220 221 222 224 224 226 229 232 233 233 233 232 231 230 228 228 231 233
285 284 279 270 264 263 259 254 261 268 266 265 264 259 256 257 262 268 272 270 271 274 271 268 265 258 261 265 250 236 232 230 230 227 220 219 223 225 226 227 227 230 233 235 236 237 237 237 236 236 237 238
287 285 283 276 265 260 256 251 256 267 267 265 268 266 260 253 252 262 269 269 271 268 260 257 253 246 252 258 248 237 234 233 229 227 224 220 223 227 230 233 233 234 233 233 235 237 239 240 241 241 241 241
290 287 284 279 269 259 255 248 247 260 266 263 263 265 264 256 248 251 259 263 265 263 260 259 251 242 245 249 242 235 239 241 231 227 229 226 225 226 228 232 235 237 238 237 237 237 238 240 242 243 243 243
295 290 286 281 273 261 254 248 243 251 263 264 258 259 262 259 253 249 250 254 258 259 260 256 248 245 243 236 234 232 238 244 233 226 230 231 230 229 229 230 232 235 237 238 239 239 239 240 242 243 244 244
297 295 290 285 278 266 254 247 243 246 255 262 260 259 261 260 258 254 248 248 252 256 255 248 244 250 247 235 233 236 238 241 236 229 231 233 232 231 232 231 231 232 234 236 237 239 239 240 241 242 244 244
297 297 294 289 284 277 263 251 245 245 250 258 262 259 259 258 255 254 251 247 247 252 253 246 242 248 248 240 238 239 239 239 237 235 235 236 233 231 232 233 233 231 232 234 235 237 238 238 239 239 241 242
296 296 296 292 286 281 274 262 251 247 248 252 256 257 256 252 248 249 253 250 244 246 250 247 243 244 242 240 244 242 240 241 239 237 237 238 237 233 233 234 235 234 233 234 236 237 238 238 237 236 237 239
298 296 295 294 288 280 276 271 262 254 250 247 249 254 258 255 246 242 247 252 249 245 246 248 249 248 240 239 245 244 242 244 243 240 241 243 241 236 235 235 236 237 237 237 238 238 238 237 236 235 235 235
299 295 293 292 289 281 272 271 271 262 255 250 247 251 258 260 254 244 240 247 252 248 245 244 249 253 247 243 247 245 242 244 247 247 249 252 249 241 236 235 236 238 239 239 238 237 237 236 235 235 235 235
297 294 291 289 288 284 270 263 266 265 258 255 252 252 257 259 257 251 243 241 244 244 245 244 244 249 250 249 253 251 245 245 247 249 253 257 256 252 245 240 238 238 239 241 240 238 238 238 237 236 235 236
298 298 295 291 289 289 280 267 264 264 262 260 256 253 253 254 254 251 248 245 241 238 240 243 243 244 247 248 253 254 251 251 251 250 254 256 256 258 255 247 244 242 240 241 242 242 241 241 241 239 238 237
299 300 299 295 291 290 290 284 276 272 269 268 263 255 250 251 254 254 252 251 249 243 239 241 242 242 243 245 248 251 251 254 255 252 252 252 252 254 254 249 248 247 246 245 244 244 244 244 244 243 241 240
300 300 300 299 296 293 292 293 292 288 283 281 278 269 259 257 259 264 263 258 256 253 246 244 243 241 241 242 244 245 246 251 256 254 249 244 245 248 250 252 252 251 250 249 248 247 246 246 245 244 244 244
300 300 299 298 296 294 291 290 290 288 284 282 282 279 273 268 266 269 272 269 265 262 258 253 251 247 243 242 243 243 244 247 250 249 244 240 238 241 245 251 254 252 249 246 247 248 248 249 248 245 245 246
303 301 299 297 295 293 289 286 283 281 279 276 276 278 279 277 273 272 275 277 275 271 267 261 257 255 251 246 245 246 247 247 244 242 242 242 240 240 241 244 248 249 247 245 245 246 247 250 251 249 247 248
305 303 300 298 297 295 294 291 287 284 283 282 281 281 283 284 282 280 279 280 280 278 275 270 264 260 259 255 249 249 253 256 252 246 244 243 241 240 240 242 244 245 245 246 246 247 247 248 249 250 249 249